Time,TemperatureF,DewpointF,PressureIn,WindDirection,WindDirectionDegrees,WindSpeedMPH,WindSpeedGustMPH,Humidity,HourlyPrecipIn,Conditions,Clouds,dailyrainin,SoftwareType,DateUTC
2013-06-08 00:01:00,51.8,48.7,29.62,North,0,0.0,0.0,89,0.00,,,0.00,WUHU216HW,2013-06-08 04:01:00,
2013-06-08 00:06:00,51.7,48.5,29.62,North,0,0.0,0.0,89,0.00,,,0.00,WUHU216HW,2013-06-08 04:06:00,
2013-06-08 00:11:00,51.7,48.8,29.62,North,0,0.0,0.0,90,0.00,,,0.00,WUHU216HW,2013-06-08 04:11:00,
2013-06-08 00:16:00,51.7,48.5,29.61,North,0,0.0,0.0,89,0.00,,,0.00,WUHU216HW,2013-06-08 04:16:00,
2013-06-08 00:22:00,51.7,48.5,29.62,North,0,0.0,0.0,89,0.00,,,0.00,WUHU216HW,2013-06-08 04:22:00,
2013-06-08 00:27:00,51.5,48.6,29.62,North,0,0.0,0.0,90,0.00,,,0.00,WUHU216HW,2013-06-08 04:27:00,
2013-06-08 00:32:00,51.5,48.3,29.62,North,0,0.0,0.0,89,0.00,,,0.00,WUHU216HW,2013-06-08 04:32:00,
2013-06-08 00:37:00,51.5,48.3,29.61,North,0,0.0,0.0,89,0.00,,,0.00,WUHU216HW,2013-06-08 04:37:00,
2013-06-08 00:42:00,51.7,48.5,29.60,North,0,0.0,0.0,89,0.00,,,0.00,WUHU216HW,2013-06-08 04:42:00,
2013-06-08 00:47:00,51.5,48.3,29.60,North,0,0.0,0.0,89,0.00,,,0.00,WUHU216HW,2013-06-08 04:47:00,
2013-06-08 00:52:00,51.5,48.3,29.60,North,0,0.0,0.0,89,0.00,,,0.00,WUHU216HW,2013-06-08 04:52:00,
2013-06-08 01:00:00,51.5,48.3,29.60,North,0,0.0,0.0,89,0.00,,,0.00,WUHU216HW,2013-06-08 05:00:00,
2013-06-08 01:05:00,51.5,48.3,29.59,North,0,0.0,0.0,89,0.00,,,0.00,WUHU216HW,2013-06-08 05:05:00,
2013-06-08 01:10:00,51.5,48.3,29.57,North,0,0.0,0.0,89,0.00,,,0.00,WUHU216HW,2013-06-08 05:10:00,
2013-06-08 01:15:00,51.5,48.3,29.56,North,0,0.0,0.0,89,0.00,,,0.00,WUHU216HW,2013-06-08 05:15:00,
2013-06-08 01:20:00,51.5,48.3,29.58,North,0,0.0,0.0,89,0.00,,,0.00,WUHU216HW,2013-06-08 05:20:00,
2013-06-08 01:25:00,51.5,48.3,29.58,North,0,0.0,0.0,89,0.00,,,0.00,WUHU216HW,2013-06-08 05:25:00,
2013-06-08 01:30:00,51.5,48.3,29.58,North,0,0.0,0.0,89,0.00,,,0.00,WUHU216HW,2013-06-08 05:30:00,
2013-06-08 01:35:00,51.7,48.5,29.58,North,0,0.0,0.0,89,0.00,,,0.00,WUHU216HW,2013-06-08 05:35:00,
2013-06-08 01:40:00,51.7,48.5,29.57,North,0,0.0,0.0,89,0.00,,,0.00,WUHU216HW,2013-06-08 05:40:00,
2013-06-08 01:45:00,51.7,48.5,29.56,North,0,0.0,0.0,89,0.00,,,0.00,WUHU216HW,2013-06-08 05:45:00,
2013-06-08 01:50:00,51.7,48.5,29.55,North,0,0.0,0.0,89,0.00,,,0.00,WUHU216HW,2013-06-08 05:50:00,
2013-06-08 01:55:00,51.7,48.5,29.55,North,0,0.0,0.0,89,0.00,,,0.00,WUHU216HW,2013-06-08 05:55:00,
2013-06-08 02:01:00,51.8,49.0,29.56,North,0,0.0,0.0,90,0.00,,,0.00,WUHU216HW,2013-06-08 06:01:00,
2013-06-08 02:06:00,51.8,48.7,29.56,North,0,0.0,0.0,89,0.01,,,0.02,WUHU216HW,2013-06-08 06:06:00,
2013-06-08 02:11:00,51.8,49.0,29.56,North,0,0.0,0.0,90,0.02,,,0.02,WUHU216HW,2013-06-08 06:11:00,
2013-06-08 02:16:00,51.8,49.0,29.56,North,0,0.0,0.0,90,0.04,,,0.04,WUHU216HW,2013-06-08 06:16:00,
2013-06-08 02:21:00,51.8,49.2,29.55,North,0,0.0,0.0,91,0.04,,,0.04,WUHU216HW,2013-06-08 06:21:00,
2013-06-08 02:26:00,51.8,49.0,29.55,North,0,0.0,0.0,90,0.04,,,0.04,WUHU216HW,2013-06-08 06:26:00,
2013-06-08 02:31:00,51.8,49.2,29.55,North,0,0.0,0.0,91,0.04,,,0.04,WUHU216HW,2013-06-08 06:31:00,
2013-06-08 02:36:00,51.8,49.2,29.55,North,0,0.0,0.0,91,0.04,,,0.04,WUHU216HW,2013-06-08 06:36:00,
2013-06-08 02:41:00,51.8,49.2,29.55,North,0,0.0,0.0,91,0.04,,,0.04,WUHU216HW,2013-06-08 06:41:00,
2013-06-08 02:46:00,51.8,49.2,29.54,North,0,0.0,0.0,91,0.04,,,0.04,WUHU216HW,2013-06-08 06:46:00,
2013-06-08 02:51:00,51.8,49.2,29.54,North,0,0.0,0.0,91,0.04,,,0.04,WUHU216HW,2013-06-08 06:51:00,
2013-06-08 03:00:00,51.8,49.2,29.53,North,0,0.0,0.0,91,0.04,,,0.04,WUHU216HW,2013-06-08 07:00:00,
2013-06-08 03:05:00,51.8,49.2,29.53,North,0,0.0,0.0,91,0.02,,,0.04,WUHU216HW,2013-06-08 07:05:00,
2013-06-08 03:10:00,51.8,49.2,29.53,North,0,0.0,0.0,91,0.01,,,0.04,WUHU216HW,2013-06-08 07:10:00,
2013-06-08 03:15:00,51.8,49.2,29.53,North,0,0.0,0.0,91,0.00,,,0.04,WUHU216HW,2013-06-08 07:15:00,
2013-06-08 03:20:00,51.8,49.2,29.52,North,0,0.0,0.0,91,0.00,,,0.04,WUHU216HW,2013-06-08 07:20:00,
2013-06-08 03:25:00,51.8,49.2,29.52,North,0,0.0,0.0,91,0.00,,,0.04,WUHU216HW,2013-06-08 07:25:00,
2013-06-08 03:30:00,51.8,49.2,29.51,North,0,0.0,0.0,91,0.00,,,0.04,WUHU216HW,2013-06-08 07:30:00,
2013-06-08 03:35:00,51.8,49.2,29.51,North,0,0.0,0.0,91,0.00,,,0.04,WUHU216HW,2013-06-08 07:35:00,
2013-06-08 03:40:00,51.8,49.2,29.51,North,0,0.0,0.0,91,0.00,,,0.04,WUHU216HW,2013-06-08 07:40:00,
2013-06-08 03:45:00,52.0,49.4,29.51,North,0,0.0,0.0,91,0.00,,,0.04,WUHU216HW,2013-06-08 07:45:00,
2013-06-08 03:50:00,52.0,49.4,29.51,North,0,0.0,0.0,91,0.00,,,0.04,WUHU216HW,2013-06-08 07:50:00,
2013-06-08 04:00:00,52.0,49.4,29.50,North,0,0.0,0.0,91,0.00,,,0.04,WUHU216HW,2013-06-08 08:00:00,
2013-06-08 04:05:00,52.0,49.4,29.50,North,0,0.0,0.0,91,0.00,,,0.04,WUHU216HW,2013-06-08 08:05:00,
2013-06-08 04:10:00,52.0,49.4,29.50,North,0,0.0,0.0,91,0.00,,,0.04,WUHU216HW,2013-06-08 08:10:00,
2013-06-08 04:15:00,52.2,49.6,29.49,North,0,0.0,0.0,91,0.00,,,0.04,WUHU216HW,2013-06-08 08:15:00,
2013-06-08 04:20:00,52.2,49.9,29.49,North,0,0.0,0.0,92,0.00,,,0.04,WUHU216HW,2013-06-08 08:20:00,
2013-06-08 04:25:00,52.2,49.6,29.49,North,0,0.0,0.0,91,0.00,,,0.04,WUHU216HW,2013-06-08 08:25:00,
2013-06-08 04:30:00,52.2,49.9,29.49,North,0,0.0,0.0,92,0.00,,,0.04,WUHU216HW,2013-06-08 08:30:00,
2013-06-08 04:35:00,52.2,49.9,29.49,North,0,0.0,0.0,92,0.00,,,0.04,WUHU216HW,2013-06-08 08:35:00,
2013-06-08 04:40:00,52.2,49.9,29.49,North,0,0.0,0.0,92,0.00,,,0.04,WUHU216HW,2013-06-08 08:40:00,
2013-06-08 05:00:00,52.2,49.6,29.48,North,0,0.0,0.0,91,0.00,,,0.04,WUHU216HW,2013-06-08 09:00:00,
2013-06-08 05:05:00,52.2,49.9,29.49,North,0,0.0,0.0,92,0.00,,,0.04,WUHU216HW,2013-06-08 09:05:00,
2013-06-08 05:10:00,52.2,49.9,29.48,North,0,0.0,0.0,92,0.00,,,0.04,WUHU216HW,2013-06-08 09:10:00,
2013-06-08 05:15:00,52.2,49.9,29.48,North,0,0.0,0.0,92,0.00,,,0.04,WUHU216HW,2013-06-08 09:15:00,
2013-06-08 05:20:00,52.2,49.9,29.48,North,0,0.0,0.0,92,0.00,,,0.04,WUHU216HW,2013-06-08 09:20:00,
2013-06-08 05:25:00,52.4,50.0,29.49,North,0,0.0,0.0,92,0.00,,,0.04,WUHU216HW,2013-06-08 09:25:00,
2013-06-08 05:30:00,52.4,50.0,29.49,North,0,0.0,0.0,92,0.00,,,0.04,WUHU216HW,2013-06-08 09:30:00,
2013-06-08 05:35:00,52.4,50.0,29.48,North,0,0.0,0.0,92,0.00,,,0.04,WUHU216HW,2013-06-08 09:35:00,
2013-06-08 05:40:00,52.4,50.0,29.48,North,0,0.0,0.0,92,0.00,,,0.04,WUHU216HW,2013-06-08 09:40:00,
2013-06-08 06:00:00,52.6,50.2,29.49,North,0,0.0,0.0,92,0.00,,,0.04,WUHU216HW,2013-06-08 10:00:00,
2013-06-08 06:05:00,52.7,50.4,29.49,North,0,0.0,0.0,92,0.00,,,0.04,WUHU216HW,2013-06-08 10:05:00,
2013-06-08 06:10:00,52.7,50.4,29.49,North,0,0.0,0.0,92,0.00,,,0.04,WUHU216HW,2013-06-08 10:10:00,
2013-06-08 06:15:00,52.9,50.6,29.49,North,0,0.0,0.0,92,0.00,,,0.04,WUHU216HW,2013-06-08 10:15:00,
2013-06-08 06:20:00,52.9,50.6,29.48,North,0,0.0,0.0,92,0.00,,,0.04,WUHU216HW,2013-06-08 10:20:00,
2013-06-08 06:25:00,53.1,50.8,29.48,North,0,0.0,0.0,92,0.00,,,0.04,WUHU216HW,2013-06-08 10:25:00,
2013-06-08 06:30:00,53.1,50.8,29.48,North,0,0.0,0.0,92,0.00,,,0.04,WUHU216HW,2013-06-08 10:30:00,
2013-06-08 06:35:00,53.3,50.9,29.48,North,0,0.0,0.0,92,0.00,,,0.04,WUHU216HW,2013-06-08 10:35:00,
2013-06-08 06:40:00,53.3,50.9,29.48,North,0,0.0,0.0,92,0.00,,,0.04,WUHU216HW,2013-06-08 10:40:00,
2013-06-08 06:45:00,53.5,51.1,29.47,North,0,0.0,0.0,92,0.00,,,0.04,WUHU216HW,2013-06-08 10:45:00,
2013-06-08 06:50:00,53.6,51.3,29.47,North,0,0.0,0.0,92,0.00,,,0.04,WUHU216HW,2013-06-08 10:50:00,
2013-06-08 06:55:00,53.8,51.5,29.48,North,0,0.0,0.0,92,0.00,,,0.04,WUHU216HW,2013-06-08 10:55:00,
2013-06-08 07:01:00,54.0,51.7,29.48,North,0,0.0,0.0,92,0.00,,,0.04,WUHU216HW,2013-06-08 11:01:00,
2013-06-08 07:06:00,54.0,51.7,29.48,North,0,0.0,0.0,92,0.00,,,0.04,WUHU216HW,2013-06-08 11:06:00,
2013-06-08 07:11:00,54.2,51.8,29.48,North,0,0.0,0.0,92,0.00,,,0.04,WUHU216HW,2013-06-08 11:11:00,
2013-06-08 07:16:00,54.4,52.0,29.48,North,0,0.0,0.0,92,0.00,,,0.04,WUHU216HW,2013-06-08 11:16:00,
2013-06-08 07:21:00,54.5,52.2,29.48,North,0,0.0,0.0,92,0.00,,,0.04,WUHU216HW,2013-06-08 11:21:00,
2013-06-08 07:26:00,54.7,52.4,29.49,North,0,0.0,0.0,92,0.00,,,0.04,WUHU216HW,2013-06-08 11:26:00,
2013-06-08 07:31:00,55.1,52.7,29.48,North,0,0.0,0.0,92,0.00,,,0.04,WUHU216HW,2013-06-08 11:31:00,
2013-06-08 07:36:00,55.1,52.7,29.49,North,0,0.0,0.0,92,0.00,,,0.04,WUHU216HW,2013-06-08 11:36:00,
2013-06-08 07:41:00,55.3,52.9,29.50,North,0,0.0,0.0,92,0.00,,,0.04,WUHU216HW,2013-06-08 11:41:00,
2013-06-08 07:46:00,55.4,52.8,29.50,North,0,0.0,0.0,91,0.00,,,0.04,WUHU216HW,2013-06-08 11:46:00,
2013-06-08 07:51:00,55.3,52.7,29.50,North,0,0.0,0.0,91,0.00,,,0.04,WUHU216HW,2013-06-08 11:51:00,
2013-06-08 07:57:00,55.1,52.5,29.50,North,0,0.0,0.0,91,0.00,,,0.04,WUHU216HW,2013-06-08 11:57:00,
2013-06-08 08:02:00,55.1,52.5,29.51,North,0,0.0,0.0,91,0.00,,,0.04,WUHU216HW,2013-06-08 12:02:00,
2013-06-08 08:07:00,55.1,52.5,29.51,North,0,0.0,0.0,91,0.00,,,0.04,WUHU216HW,2013-06-08 12:07:00,
2013-06-08 08:12:00,55.4,52.8,29.50,North,0,0.0,0.0,91,0.00,,,0.04,WUHU216HW,2013-06-08 12:12:00,
2013-06-08 08:17:00,55.6,53.0,29.51,North,0,0.0,0.0,91,0.00,,,0.04,WUHU216HW,2013-06-08 12:17:00,
2013-06-08 08:22:00,56.2,53.6,29.52,North,0,0.0,0.0,91,0.00,,,0.04,WUHU216HW,2013-06-08 12:22:00,
2013-06-08 08:27:00,56.5,53.9,29.52,North,0,0.0,0.0,91,0.00,,,0.04,WUHU216HW,2013-06-08 12:27:00,
2013-06-08 08:32:00,57.1,54.5,29.52,North,0,0.0,0.0,91,0.00,,,0.04,WUHU216HW,2013-06-08 12:32:00,
2013-06-08 08:37:00,57.6,55.0,29.52,North,0,0.0,0.0,91,0.00,,,0.04,WUHU216HW,2013-06-08 12:37:00,
2013-06-08 08:42:00,58.1,55.5,29.52,North,0,0.0,0.0,91,0.00,,,0.04,WUHU216HW,2013-06-08 12:42:00,
2013-06-08 08:48:00,58.5,55.6,29.53,North,0,0.0,0.0,90,0.00,,,0.04,WUHU216HW,2013-06-08 12:48:00,
2013-06-08 08:53:00,58.7,55.8,29.53,North,0,0.0,0.0,90,0.00,,,0.04,WUHU216HW,2013-06-08 12:53:00,
2013-06-08 08:58:00,58.7,55.4,29.53,North,0,0.0,0.0,89,0.00,,,0.04,WUHU216HW,2013-06-08 12:58:00,
2013-06-08 09:03:00,58.9,55.6,29.53,North,0,0.0,0.0,89,0.00,,,0.04,WUHU216HW,2013-06-08 13:03:00,
2013-06-08 09:08:00,58.7,55.2,29.55,North,0,0.0,0.0,88,0.00,,,0.04,WUHU216HW,2013-06-08 13:08:00,
2013-06-08 09:13:00,58.9,55.4,29.55,North,0,0.0,0.0,88,0.00,,,0.04,WUHU216HW,2013-06-08 13:13:00,
2013-06-08 09:18:00,59.0,55.5,29.54,North,0,0.0,0.0,88,0.00,,,0.04,WUHU216HW,2013-06-08 13:18:00,
2013-06-08 09:23:00,59.2,55.4,29.54,North,0,0.0,0.0,87,0.00,,,0.04,WUHU216HW,2013-06-08 13:23:00,
2013-06-08 09:28:00,59.8,55.9,29.54,North,0,0.0,0.0,87,0.00,,,0.04,WUHU216HW,2013-06-08 13:28:00,
2013-06-08 09:33:00,60.7,56.8,29.54,North,0,0.0,0.0,87,0.00,,,0.04,WUHU216HW,2013-06-08 13:33:00,
2013-06-08 09:38:00,60.7,56.8,29.54,North,0,0.0,0.0,87,0.00,,,0.04,WUHU216HW,2013-06-08 13:38:00,
2013-06-08 10:00:00,63.2,57.9,29.55,North,0,0.0,0.0,83,0.00,,,0.04,WUHU216HW,2013-06-08 14:00:00,
2013-06-08 10:05:00,63.4,57.8,29.55,North,0,0.0,0.0,82,0.00,,,0.04,WUHU216HW,2013-06-08 14:05:00,
2013-06-08 10:10:00,63.5,58.2,29.55,North,0,0.0,0.0,83,0.00,,,0.04,WUHU216HW,2013-06-08 14:10:00,
2013-06-08 10:15:00,63.9,58.3,29.54,North,0,0.0,0.0,82,0.00,,,0.04,WUHU216HW,2013-06-08 14:15:00,
2013-06-08 10:20:00,64.6,59.1,29.55,North,0,0.0,0.0,82,0.00,,,0.04,WUHU216HW,2013-06-08 14:20:00,
2013-06-08 10:25:00,65.7,59.8,29.54,North,0,0.0,0.0,81,0.00,,,0.04,WUHU216HW,2013-06-08 14:25:00,
2013-06-08 10:30:00,66.8,60.9,29.55,North,0,0.0,0.0,81,0.00,,,0.04,WUHU216HW,2013-06-08 14:30:00,
2013-06-08 10:35:00,67.3,60.7,29.55,North,0,0.0,0.0,79,0.00,,,0.04,WUHU216HW,2013-06-08 14:35:00,
2013-06-08 10:40:00,67.3,60.7,29.55,North,0,0.0,0.0,79,0.00,,,0.04,WUHU216HW,2013-06-08 14:40:00,
2013-06-08 11:00:00,69.1,61.6,29.56,North,0,0.0,0.0,77,0.00,,,0.04,WUHU216HW,2013-06-08 15:00:00,
2013-06-08 11:05:00,68.9,61.4,29.57,North,0,0.0,0.0,77,0.00,,,0.04,WUHU216HW,2013-06-08 15:05:00,
2013-06-08 11:10:00,68.6,60.8,29.57,North,0,0.0,0.0,76,0.00,,,0.04,WUHU216HW,2013-06-08 15:10:00,
2013-06-08 11:15:00,68.4,60.2,29.58,North,0,0.0,0.0,75,0.00,,,0.04,WUHU216HW,2013-06-08 15:15:00,
2013-06-08 11:20:00,68.6,61.1,29.58,North,0,0.0,0.0,77,0.00,,,0.04,WUHU216HW,2013-06-08 15:20:00,
2013-06-08 11:25:00,68.9,61.4,29.58,North,0,0.0,0.0,77,0.00,,,0.04,WUHU216HW,2013-06-08 15:25:00,
2013-06-08 11:30:00,69.5,61.1,29.58,North,0,0.0,0.0,75,0.00,,,0.04,WUHU216HW,2013-06-08 15:30:00,
2013-06-08 11:35:00,69.8,61.5,29.58,North,0,0.0,0.0,75,0.00,,,0.04,WUHU216HW,2013-06-08 15:35:00,
2013-06-08 11:40:00,70.2,61.5,29.58,North,0,0.0,0.0,74,0.00,,,0.04,WUHU216HW,2013-06-08 15:40:00,
2013-06-08 11:45:00,70.9,62.2,29.59,North,0,0.0,0.0,74,0.00,,,0.04,WUHU216HW,2013-06-08 15:45:00,
2013-06-08 11:50:00,70.9,60.7,29.59,North,0,0.0,0.0,70,0.00,,,0.04,WUHU216HW,2013-06-08 15:50:00,
2013-06-08 11:55:00,70.9,61.0,29.58,North,0,0.0,0.0,71,0.00,,,0.04,WUHU216HW,2013-06-08 15:55:00,
2013-06-08 12:00:00,71.3,61.4,29.59,North,0,0.0,0.0,71,0.00,,,0.04,WUHU216HW,2013-06-08 16:00:00,
2013-06-08 12:05:00,72.5,61.8,29.59,North,0,0.0,0.0,69,0.00,,,0.04,WUHU216HW,2013-06-08 16:05:00,
2013-06-08 12:11:00,72.7,62.0,29.59,North,0,0.0,0.0,69,0.00,,,0.04,WUHU216HW,2013-06-08 16:11:00,
2013-06-08 12:16:00,72.2,60.2,29.59,North,0,0.0,0.0,66,0.00,,,0.04,WUHU216HW,2013-06-08 16:16:00,
2013-06-08 12:21:00,72.4,62.1,29.59,North,0,0.0,0.0,70,0.00,,,0.04,WUHU216HW,2013-06-08 16:21:00,
2013-06-08 12:26:00,72.7,62.0,29.59,North,0,0.0,0.0,69,0.00,,,0.04,WUHU216HW,2013-06-08 16:26:00,
2013-06-08 12:31:00,73.1,61.9,29.59,North,0,0.0,0.0,68,0.00,,,0.04,WUHU216HW,2013-06-08 16:31:00,
2013-06-08 12:36:00,73.3,62.1,29.59,North,0,0.0,0.0,68,0.00,,,0.04,WUHU216HW,2013-06-08 16:36:00,
2013-06-08 12:41:00,73.6,62.5,29.60,North,0,0.0,0.0,68,0.00,,,0.04,WUHU216HW,2013-06-08 16:41:00,
2013-06-08 12:46:00,74.7,63.9,29.59,North,0,0.0,0.0,69,0.00,,,0.04,WUHU216HW,2013-06-08 16:46:00,
2013-06-08 12:52:00,75.2,63.6,29.59,North,0,0.0,0.0,67,0.00,,,0.04,WUHU216HW,2013-06-08 16:52:00,
2013-06-08 12:57:00,75.2,63.6,29.59,North,0,0.0,0.0,67,0.00,,,0.04,WUHU216HW,2013-06-08 16:57:00,
2013-06-08 13:02:00,76.1,63.9,29.59,North,0,0.0,0.0,66,0.00,,,0.04,WUHU216HW,2013-06-08 17:02:00,
2013-06-08 13:07:00,75.8,63.6,29.60,North,0,0.0,0.0,66,0.00,,,0.04,WUHU216HW,2013-06-08 17:07:00,
2013-06-08 13:12:00,75.8,63.2,29.60,North,0,0.0,0.0,65,0.00,,,0.04,WUHU216HW,2013-06-08 17:12:00,
2013-06-08 13:17:00,76.0,63.4,29.60,North,0,0.0,0.0,65,0.00,,,0.04,WUHU216HW,2013-06-08 17:17:00,
2013-06-08 13:22:00,75.8,62.3,29.60,North,0,0.0,0.0,63,0.00,,,0.04,WUHU216HW,2013-06-08 17:22:00,
2013-06-08 13:27:00,75.4,62.8,29.60,North,0,0.0,0.0,65,0.00,,,0.04,WUHU216HW,2013-06-08 17:27:00,
2013-06-08 13:32:00,76.0,63.4,29.60,North,0,0.0,0.0,65,0.00,,,0.04,WUHU216HW,2013-06-08 17:32:00,
2013-06-08 13:37:00,76.1,63.1,29.60,North,0,0.0,0.0,64,0.00,,,0.04,WUHU216HW,2013-06-08 17:37:00,
2013-06-08 13:42:00,76.1,63.1,29.60,North,0,0.0,0.0,64,0.00,,,0.04,WUHU216HW,2013-06-08 17:42:00,
2013-06-08 14:00:00,75.6,61.7,29.61,North,0,0.0,0.0,62,0.00,,,0.04,WUHU216HW,2013-06-08 18:00:00,
2013-06-08 14:05:00,75.2,62.2,29.62,North,0,0.0,0.0,64,0.00,,,0.04,WUHU216HW,2013-06-08 18:05:00,
2013-06-08 14:10:00,75.1,62.0,29.62,North,0,0.0,0.0,64,0.00,,,0.04,WUHU216HW,2013-06-08 18:10:00,
2013-06-08 14:15:00,74.7,61.3,29.61,North,0,0.0,0.0,63,0.00,,,0.04,WUHU216HW,2013-06-08 18:15:00,
2013-06-08 14:20:00,74.7,61.7,29.61,North,0,0.0,0.0,64,0.00,,,0.04,WUHU216HW,2013-06-08 18:20:00,
2013-06-08 14:25:00,74.7,60.9,29.62,North,0,0.0,0.0,62,0.00,,,0.04,WUHU216HW,2013-06-08 18:25:00,
2013-06-08 14:30:00,74.5,61.1,29.62,North,0,0.0,0.0,63,0.00,,,0.04,WUHU216HW,2013-06-08 18:30:00,
2013-06-08 14:35:00,74.7,62.1,29.63,North,0,0.0,0.0,65,0.00,,,0.04,WUHU216HW,2013-06-08 18:35:00,
2013-06-08 14:40:00,74.7,62.1,29.63,North,0,0.0,0.0,65,0.00,,,0.04,WUHU216HW,2013-06-08 18:40:00,
2013-06-08 15:00:00,74.9,61.8,29.63,North,0,0.0,0.0,64,0.00,,,0.04,WUHU216HW,2013-06-08 19:00:00,
2013-06-08 15:05:00,75.6,61.7,29.64,North,0,0.0,0.0,62,0.00,,,0.04,WUHU216HW,2013-06-08 19:05:00,
2013-06-08 15:10:00,75.8,61.4,29.64,North,0,0.0,0.0,61,0.00,,,0.04,WUHU216HW,2013-06-08 19:10:00,
2013-06-08 15:15:00,75.4,60.7,29.64,North,0,0.0,0.0,60,0.00,,,0.04,WUHU216HW,2013-06-08 19:15:00,
2013-06-08 15:20:00,76.0,61.6,29.64,North,0,0.0,0.0,61,0.00,,,0.04,WUHU216HW,2013-06-08 19:20:00,
2013-06-08 15:25:00,76.3,61.5,29.65,North,0,0.0,0.0,60,0.00,,,0.04,WUHU216HW,2013-06-08 19:25:00,
2013-06-08 15:30:00,76.3,60.9,29.65,North,0,0.0,0.0,59,0.00,,,0.04,WUHU216HW,2013-06-08 19:30:00,
2013-06-08 15:35:00,75.8,61.4,29.65,North,0,0.0,0.0,61,0.00,,,0.04,WUHU216HW,2013-06-08 19:35:00,
2013-06-08 15:40:00,75.2,59.9,29.65,North,0,0.0,0.0,59,0.00,,,0.04,WUHU216HW,2013-06-08 19:40:00,
2013-06-08 15:45:00,74.2,59.4,29.65,North,0,0.0,0.0,60,0.00,,,0.04,WUHU216HW,2013-06-08 19:45:00,
2013-06-08 15:50:00,73.4,59.6,29.65,North,0,0.0,0.0,62,0.00,,,0.04,WUHU216HW,2013-06-08 19:50:00,
2013-06-08 15:55:00,73.1,59.7,29.66,North,0,0.0,0.0,63,0.00,,,0.04,WUHU216HW,2013-06-08 19:55:00,
2013-06-08 16:01:00,72.7,59.8,29.66,North,0,0.0,0.0,64,0.00,,,0.04,WUHU216HW,2013-06-08 20:01:00,
2013-06-08 16:06:00,72.5,60.0,29.66,North,0,0.0,0.0,65,0.00,,,0.04,WUHU216HW,2013-06-08 20:06:00,
2013-06-08 16:11:00,72.5,60.0,29.66,North,0,0.0,0.0,65,0.00,,,0.04,WUHU216HW,2013-06-08 20:11:00,
2013-06-08 16:16:00,72.5,60.5,29.66,North,0,0.0,0.0,66,0.00,,,0.04,WUHU216HW,2013-06-08 20:16:00,
2013-06-08 16:21:00,72.5,59.7,29.66,North,0,0.0,0.0,64,0.00,,,0.04,WUHU216HW,2013-06-08 20:21:00,
2013-06-08 16:26:00,72.7,60.2,29.66,North,0,0.0,0.0,65,0.00,,,0.04,WUHU216HW,2013-06-08 20:26:00,
2013-06-08 16:31:00,72.4,60.0,29.66,North,0,0.0,0.0,65,0.00,,,0.04,WUHU216HW,2013-06-08 20:31:00,
2013-06-08 16:36:00,72.4,59.5,29.66,North,0,0.0,0.0,64,0.00,,,0.04,WUHU216HW,2013-06-08 20:36:00,
2013-06-08 16:41:00,72.4,59.5,29.66,North,0,0.0,0.0,64,0.00,,,0.04,WUHU216HW,2013-06-08 20:41:00,
2013-06-08 17:00:00,71.6,59.7,29.68,North,0,0.0,0.0,66,0.00,,,0.04,WUHU216HW,2013-06-08 21:00:00,
2013-06-08 17:05:00,71.3,59.3,29.68,North,0,0.0,0.0,66,0.00,,,0.04,WUHU216HW,2013-06-08 21:05:00,
2013-06-08 17:10:00,71.3,59.3,29.69,North,0,0.0,0.0,66,0.00,,,0.04,WUHU216HW,2013-06-08 21:10:00,
2013-06-08 17:15:00,71.1,59.6,29.69,North,0,0.0,0.0,67,0.00,,,0.04,WUHU216HW,2013-06-08 21:15:00,
2013-06-08 17:20:00,70.9,59.4,29.69,North,0,0.0,0.0,67,0.00,,,0.04,WUHU216HW,2013-06-08 21:20:00,
2013-06-08 17:25:00,70.9,59.9,29.69,North,0,0.0,0.0,68,0.00,,,0.04,WUHU216HW,2013-06-08 21:25:00,
2013-06-08 17:30:00,70.6,59.5,29.69,North,0,0.0,0.0,68,0.00,,,0.04,WUHU216HW,2013-06-08 21:30:00,
2013-06-08 17:35:00,70.4,59.3,29.70,North,0,0.0,0.0,68,0.00,,,0.04,WUHU216HW,2013-06-08 21:35:00,
2013-06-08 17:40:00,70.4,59.3,29.70,North,0,0.0,0.0,68,0.00,,,0.04,WUHU216HW,2013-06-08 21:40:00,
2013-06-08 18:00:00,69.3,59.1,29.69,North,0,0.0,0.0,70,0.00,,,0.04,WUHU216HW,2013-06-08 22:00:00,
2013-06-08 18:05:00,69.3,59.1,29.69,North,0,0.0,0.0,70,0.00,,,0.04,WUHU216HW,2013-06-08 22:05:00,
2013-06-08 18:10:00,69.5,59.2,29.70,North,0,0.0,0.0,70,0.00,,,0.04,WUHU216HW,2013-06-08 22:10:00,
2013-06-08 18:15:00,69.5,59.7,29.71,North,0,0.0,0.0,71,0.00,,,0.04,WUHU216HW,2013-06-08 22:15:00,
2013-06-08 18:20:00,69.3,59.5,29.70,North,0,0.0,0.0,71,0.00,,,0.04,WUHU216HW,2013-06-08 22:20:00,
2013-06-08 18:25:00,69.1,59.3,29.70,North,0,0.0,0.0,71,0.00,,,0.04,WUHU216HW,2013-06-08 22:25:00,
2013-06-08 18:30:00,69.1,59.3,29.70,North,0,0.0,0.0,71,0.00,,,0.04,WUHU216HW,2013-06-08 22:30:00,
2013-06-08 18:35:00,69.1,59.3,29.70,North,0,0.0,0.0,71,0.00,,,0.04,WUHU216HW,2013-06-08 22:35:00,
2013-06-08 18:40:00,68.9,59.5,29.71,North,0,0.0,0.0,72,0.00,,,0.04,WUHU216HW,2013-06-08 22:40:00,
2013-06-08 18:45:00,68.9,59.5,29.71,North,0,0.0,0.0,72,0.00,,,0.04,WUHU216HW,2013-06-08 22:45:00,
2013-06-08 18:50:00,68.9,59.5,29.71,North,0,0.0,0.0,72,0.00,,,0.04,WUHU216HW,2013-06-08 22:50:00,
2013-06-08 18:55:00,68.9,59.5,29.71,North,0,0.0,0.0,72,0.00,,,0.04,WUHU216HW,2013-06-08 22:55:00,
2013-06-08 19:01:00,68.8,59.4,29.71,North,0,0.0,0.0,72,0.00,,,0.04,WUHU216HW,2013-06-08 23:01:00,
2013-06-08 19:05:00,68.8,59.8,29.71,North,0,0.0,0.0,73,0.00,,,0.04,WUHU216HW,2013-06-08 23:05:00,
2013-06-08 19:11:00,68.8,59.8,29.71,North,0,0.0,0.0,73,0.00,,,0.04,WUHU216HW,2013-06-08 23:11:00,
2013-06-08 19:16:00,68.8,59.8,29.71,North,0,0.0,0.0,73,0.00,,,0.04,WUHU216HW,2013-06-08 23:16:00,
2013-06-08 19:21:00,68.8,59.8,29.71,North,0,0.0,0.0,73,0.00,,,0.04,WUHU216HW,2013-06-08 23:21:00,
2013-06-08 19:26:00,68.8,59.8,29.72,North,0,0.0,0.0,73,0.00,,,0.04,WUHU216HW,2013-06-08 23:26:00,
2013-06-08 19:31:00,68.6,59.6,29.72,North,0,0.0,0.0,73,0.00,,,0.04,WUHU216HW,2013-06-08 23:31:00,
2013-06-08 19:36:00,68.4,59.4,29.72,North,0,0.0,0.0,73,0.00,,,0.04,WUHU216HW,2013-06-08 23:36:00,
2013-06-08 19:42:00,68.4,59.8,29.72,North,0,0.0,0.0,74,0.00,,,0.04,WUHU216HW,2013-06-08 23:42:00,
2013-06-08 19:47:00,68.0,59.5,29.72,North,0,0.0,0.0,74,0.00,,,0.04,WUHU216HW,2013-06-08 23:47:00,
2013-06-08 19:52:00,67.9,59.3,29.72,North,0,0.0,0.0,74,0.00,,,0.04,WUHU216HW,2013-06-08 23:52:00,
2013-06-08 19:57:00,67.7,59.5,29.73,North,0,0.0,0.0,75,0.00,,,0.04,WUHU216HW,2013-06-08 23:57:00,
2013-06-08 20:02:00,67.3,59.5,29.73,North,0,0.0,0.0,76,0.00,,,0.04,WUHU216HW,2013-06-09 00:02:00,
2013-06-08 20:07:00,67.1,59.3,29.73,North,0,0.0,0.0,76,0.00,,,0.04,WUHU216HW,2013-06-09 00:07:00,
2013-06-08 20:12:00,67.0,59.5,29.73,North,0,0.0,0.0,77,0.00,,,0.04,WUHU216HW,2013-06-09 00:12:00,
2013-06-08 20:17:00,66.8,59.3,29.74,North,0,0.0,0.0,77,0.00,,,0.04,WUHU216HW,2013-06-09 00:17:00,
2013-06-08 20:22:00,66.6,59.1,29.74,North,0,0.0,0.0,77,0.00,,,0.04,WUHU216HW,2013-06-09 00:22:00,
2013-06-08 20:27:00,66.6,59.1,29.73,North,0,0.0,0.0,77,0.00,,,0.04,WUHU216HW,2013-06-09 00:27:00,
2013-06-08 20:32:00,66.4,59.0,29.73,North,0,0.0,0.0,77,0.00,,,0.04,WUHU216HW,2013-06-09 00:32:00,
2013-06-08 20:37:00,66.4,59.0,29.73,North,0,0.0,0.0,77,0.00,,,0.04,WUHU216HW,2013-06-09 00:37:00,
2013-06-08 20:42:00,66.4,59.0,29.73,North,0,0.0,0.0,77,0.00,,,0.04,WUHU216HW,2013-06-09 00:42:00,
2013-06-08 21:00:00,65.9,58.5,29.74,North,0,0.0,0.0,77,0.00,,,0.04,WUHU216HW,2013-06-09 01:00:00,
2013-06-08 21:05:00,65.9,58.5,29.74,North,0,0.0,0.0,77,0.00,,,0.04,WUHU216HW,2013-06-09 01:05:00,
2013-06-08 21:10:00,65.7,58.7,29.74,North,0,0.0,0.0,78,0.00,,,0.04,WUHU216HW,2013-06-09 01:10:00,
2013-06-08 21:15:00,65.7,58.7,29.74,North,0,0.0,0.0,78,0.00,,,0.04,WUHU216HW,2013-06-09 01:15:00,
2013-06-08 21:20:00,65.7,58.7,29.75,North,0,0.0,0.0,78,0.00,,,0.04,WUHU216HW,2013-06-09 01:20:00,
2013-06-08 21:25:00,65.5,58.5,29.75,North,0,0.0,0.0,78,0.00,,,0.04,WUHU216HW,2013-06-09 01:25:00,
2013-06-08 21:30:00,65.5,58.5,29.76,North,0,0.0,0.0,78,0.00,,,0.04,WUHU216HW,2013-06-09 01:30:00,
2013-06-08 21:35:00,65.3,58.3,29.76,North,0,0.0,0.0,78,0.00,,,0.04,WUHU216HW,2013-06-09 01:35:00,
2013-06-08 21:40:00,65.3,58.7,29.77,North,0,0.0,0.0,79,0.00,,,0.04,WUHU216HW,2013-06-09 01:40:00,
2013-06-08 21:45:00,65.2,58.5,29.77,North,0,0.0,0.0,79,0.00,,,0.04,WUHU216HW,2013-06-09 01:45:00,
2013-06-08 21:50:00,65.2,58.5,29.77,North,0,0.0,0.0,79,0.00,,,0.04,WUHU216HW,2013-06-09 01:50:00,
2013-06-08 21:55:00,65.0,58.7,29.78,North,0,0.0,0.0,80,0.00,,,0.04,WUHU216HW,2013-06-09 01:55:00,
2013-06-08 22:00:00,64.8,58.5,29.78,North,0,0.0,0.0,80,0.00,,,0.04,WUHU216HW,2013-06-09 02:00:00,
2013-06-08 22:05:00,64.8,58.5,29.78,North,0,0.0,0.0,80,0.00,,,0.04,WUHU216HW,2013-06-09 02:05:00,
2013-06-08 22:11:00,64.6,58.3,29.78,North,0,0.0,0.0,80,0.00,,,0.04,WUHU216HW,2013-06-09 02:11:00,
2013-06-08 22:16:00,64.4,58.1,29.78,North,0,0.0,0.0,80,0.00,,,0.04,WUHU216HW,2013-06-09 02:16:00,
2013-06-08 22:21:00,64.4,58.1,29.78,North,0,0.0,0.0,80,0.00,,,0.04,WUHU216HW,2013-06-09 02:21:00,
2013-06-08 22:26:00,64.1,57.8,29.78,North,0,0.0,0.0,80,0.00,,,0.04,WUHU216HW,2013-06-09 02:26:00,
2013-06-08 22:31:00,64.1,57.4,29.79,North,0,0.0,0.0,79,0.00,,,0.04,WUHU216HW,2013-06-09 02:31:00,
2013-06-08 22:36:00,63.7,57.4,29.79,North,0,0.0,0.0,80,0.00,,,0.04,WUHU216HW,2013-06-09 02:36:00,
2013-06-08 22:41:00,63.5,57.2,29.79,North,0,0.0,0.0,80,0.00,,,0.04,WUHU216HW,2013-06-09 02:41:00,
2013-06-08 22:46:00,63.5,57.2,29.79,North,0,0.0,0.0,80,0.00,,,0.04,WUHU216HW,2013-06-09 02:46:00,
2013-06-08 22:51:00,63.5,57.2,29.79,North,0,0.0,0.0,80,0.00,,,0.04,WUHU216HW,2013-06-09 02:51:00,
2013-06-08 23:00:00,62.8,56.9,29.78,North,0,0.0,0.0,81,0.00,,,0.04,WUHU216HW,2013-06-09 03:00:00,
2013-06-08 23:05:00,62.8,56.9,29.78,North,0,0.0,0.0,81,0.00,,,0.04,WUHU216HW,2013-06-09 03:05:00,